Skip Page Navigation
NASA JPL Caltech
NASA Logo - Jet Propulsion Laboratory + View the NASA Portal
+ Center for Near-Earth Object Studies
JPL Home Earth Solar System Stars & Galaxies Technology
JPL Solar System Dynamics
BODIES ORBITS EPHEMERIDES TOOLS PHYSICAL DATA DISCOVERY FAQ SITE MAP
JPL Small-Body Database Browser
Search: [ help ]  
(2007 RU17)
Classification: Apollo [NEO, PHA]          SPK-ID: 3384406
Ephemeris | Orbit Diagram | Orbital Elements | Mission Design | Physical Parameters | Close-Approach Data ]

[ hide orbit diagram ]

For accurate long-term ephemerides, please instead use our Horizons system.This orbit viewer was implemented using two-body methods, and hence should not be used for determining accurate long-term trajectories (over several years or decades) or planetary encounter circumstances.


Orbital Elements at Epoch 2459200.5 (2020-Dec-17.0) TDB
Reference: JPL 65 (heliocentric ecliptic J2000)
 Element Value Uncertainty (1-sigma)   Units 
e .8286103165922701 1.3901e-07  
a 2.039305326403468 1.0506e-07 au
q .3495158942639875 2.7427e-07 au
i 9.105154765746459 2.1202e-05 deg
node 17.14326921492999 2.2484e-05 deg
peri 130.1268002616632 3.3196e-05 deg
M 157.2399665461513 1.7433e-05 deg
tp 2458735.896743868383
(2019-Sep-09.39674387)
1.6435e-05 TDB
period 1063.706485579102
2.91
8.2198e-05
2.25e-07
d
yr
n .3384392263096988 2.6153e-08 deg/d
Q 3.729094758542947 1.9211e-07 au
  Orbit Determination Parameters
   # obs. used (total)      389  
   # delay obs. used      1  
   # Doppler obs. used      0  
   data-arc span      2213 days (6.06 yr)  
   first obs. used      2007-09-13  
   last obs. used      2013-10-04  
   planetary ephem.      DE431  
   SB-pert. ephem.      SB431-N16  
   condition code      0  
   norm. resid. RMS      .40958  
   source      ORB  
   producer      Otto Matic  
   solution date      2017-Dec-02 06:16:59  

Additional Information
 Earth MOID = .0393861 au 
 Jupiter MOID = 1.36642 au 
 T_jup = 3.244 
[ show covariance matrix ]

Ephemeris | Orbit Diagram | Orbital Elements | Mission Design | Physical Parameters | Close-Approach Data ]

Physical Parameter Table
Parameter Symbol Value Units Sigma Reference Notes
absolute magnitude H 18.1   n/a E2013R61  

[ show close-approach data ]
Ephemeris | Orbit Diagram | Orbital Elements | Mission Design | Physical Parameters | Close-Approach Data ]
ABOUT SSD CREDITS/AWARDS PRIVACY/COPYRIGHT GLOSSARY LINKS
FirstGov 2021-Mar-09 05:47 UT
(server date/time)  
NASA Home Page
Site Manager:   Ryan S. Park
Webmaster  Alan B. Chamberlin